Overview Statistics Trail Chart Weather Telemetry Raw packets
 

This is the latest recevied weather packets stored in our database for station/object N3LF. If no packets are shown the sender has not sent any weather packets the latest 10 day(s).

<< 39 40 41 42 43 44 45 >>
Time Temp. Humidity Pressure Rain* Wind** Luminosity Snow
1788354095 23.89° C 99% 1022.2 hPa 0 mm - 126 W/m² -
1788353791 23.89° C 99% 1022.1 hPa 0 mm - 111 W/m² -
1788353486 23.89° C 99% 1022.1 hPa 0 mm - 97 W/m² -
1788353183 23.33° C 99% 1022 hPa 0 mm - 87 W/m² -
1788352883 22.78° C 99% 1022 hPa 0 mm - 77 W/m² -
1788352579 22.78° C 99% 1022 hPa 0 mm - 69 W/m² -
1788352279 22.22° C 99% 1021.9 hPa 0 mm - 62 W/m² -
1788351979 22.22° C 99% 1022 hPa 0 mm - 55 W/m² -
1788351675 22.22° C 99% 1021.9 hPa 0 mm - 49 W/m² -
1788351375 22.22° C 99% 1021.9 hPa 0 mm - 44 W/m² -
1788351069 21.67° C 99% 1021.9 hPa 0 mm - 39 W/m² -
1788350766 21.67° C 99% 1022 hPa 0 mm - 34 W/m² -
1788350476 21.67° C 99% 1021.9 hPa 0 mm - 28 W/m² -
1788350156 21.67° C 99% 1021.8 hPa 0 mm - 24 W/m² -
1788349853 21.67° C 99% 1021.7 hPa 0 mm - 20 W/m² -
1788349548 21.67° C 99% 1021.6 hPa 0 mm - 17 W/m² -
1788349248 21.11° C 99% 1021.7 hPa 0 mm - 13 W/m² -
1788348944 21.11° C 99% 1021.5 hPa 0 mm - 10 W/m² -
1788348639 21.11° C 99% 1021.6 hPa 0 mm - 7 W/m² -
1788348334 21.11° C 99% 1021.5 hPa 0 mm - 4 W/m² -
1788348031 21.11° C 99% 1021.4 hPa 0 mm - 2 W/m² -
1788347726 21.11° C 99% 1021.3 hPa 0 mm - 1 W/m² -
1788347422 21.11° C 99% 1021.3 hPa 0 mm - 1 W/m² -
1788347118 21.11° C 99% 1021.5 hPa 0 mm - 0 W/m² -
1788346813 21.67° C 99% 1021.2 hPa 0 mm - 0 W/m² -

* Rain latest hour (hover to see other rain measurements)
** Current wind speed in m/s (hover to see current wind gust speed)